{"data":{"norad_id":59004,"intl_designator":"2024-036G","name":"STARLINK-31435","alt_names":[],"object_type":"PAYLOAD","status":"ACTIVE","operator":null,"country":"US","launch_date":"2024-02-23","launch_site_code":"AFWTR","launch_vehicle":null,"mission":null,"orbit_class":"UNKNOWN","rcs_meters":null,"size_class":null,"mass_kg":null,"dimensions":null,"purposes":["comms"],"wikipedia_slug":null,"has_3d_model":false,"image_url":null,"decayed_at":null,"tle_current":{"epoch":"2026-09-20T09:02:22.931520Z","epoch_age_seconds":166193,"freshness":"FRESH","line1":"1 59004U 24036G   26263.37665430  .00001086  00000+0  43275-4 0  9995","line2":"2 59004  53.1577 252.2014 0001452  84.1874 275.9294 15.34392907145166","mean_motion":15.34392907,"eccentricity":0.0001452,"inclination_deg":53.1577,"raan_deg":252.2014,"arg_perigee_deg":84.1874,"mean_anomaly_deg":275.9294,"bstar":4.3275e-5,"rev_number":14516,"period_min":93.848191909036,"perigee_km":461.73102911512,"apogee_km":463.71761524308,"semimajor_km":6840.8613221791,"source":"CELESTRAK","updated_at":"2026-09-21T09:00:34.024035Z"}}}